GW6871 Weather Reports


time (UTC)temp
F
wind
direction
speed
knots
gust
knots
rain 1hr
in
rain 24hr
in
rain mn
in
humidity
%
barometer
mb
20260509024347 85 216 1.7 1.7 0.00 0.00 0.00 57 1011.7
20260509023844 84 282 0.0 0.9 0.00 0.00 0.00 58 1011.7
20260509023342 83 297 0.9 2.6 0.00 0.00 0.00 59 1011.5
20260509022838 84 294 0.9 1.7 0.00 0.00 0.00 59 1011.7
20260509022336 83 140 0.0 1.7 0.00 0.00 0.00 59 1011.7
20260509021832 82 231 0.0 1.7 0.00 0.00 0.00 60 1011.7
20260509021329 82 209 1.7 1.7 0.00 0.00 0.00 62 1011.5
20260509020827 81 346 0.9 0.9 0.00 0.00 0.00 62 1011.7
20260509020325 81 323 0.9 1.7 0.00 0.00 0.00 62 1011.4
20260509015822 80 82 0.9 1.7 0.00 0.00 0.00 63 1011.2
20260509015320 81 244 0.9 1.7 0.00 0.00 0.00 62 1011.3
20260509014816 81 266 0.0 2.6 0.00 0.00 0.00 64 1011.3
20260509014314 80 40 0.9 3.5 0.00 0.00 0.00 65 1011.3
20260509013810 80 26 1.7 2.6 0.00 0.00 0.00 65 1011.1
20260509013307 79 305 0.0 2.6 0.00 0.00 0.00 66 1011.2
20260509012803 80 255 0.0 1.7 0.00 0.00 0.00 65 1011.1
20260509012300 81 225 0.0 0.9 0.00 0.00 0.00 64 1011.0
20260509011757 79 346 0.0 0.9 0.00 0.00 0.00 66 1011.2
20260509011254 78 338 0.0 0.9 0.00 0.00 0.00 68 1011.1
20260509010752 78 242 0.9 1.7 0.00 0.00 0.00 67 1011.0
20260509010248 78 160 0.9 2.6 0.00 0.00 0.00 69 1010.7
20260509005746 77 294 1.7 3.5 0.00 0.00 0.00 70 1010.9
20260509005244 77 327 0.9 3.5 0.00 0.00 0.00 70 1010.8
20260509004743 77 67 0.0 3.5 0.00 0.00 0.00 71 1010.6
20260509004241 77 45 1.7 3.5 0.00 0.00 0.00 71 1010.7
20260509003739 77 251 0.0 0.9 0.00 0.00 0.00 73 1010.5
20260509003236 77 282 0.9 1.7 0.00 0.00 0.00 75 1010.6
20260509002733 77 318 0.0 0.9 0.00 0.00 0.00 76 1010.3
20260509002231 77 313 0.9 0.9 0.00 0.00 0.00 76 1010.3
20260509001728 77 342 0.0 1.7 0.00 0.00 0.00 75 1010.3
20260509001224 77 308 0.9 2.6 0.00 0.00 0.00 75 1010.1
20260509000722 77 341 0.9 2.6 0.00 0.00 0.00 76 1010.3
20260509000219 77 296 0.0 2.6 0.00 0.00 0.00 76 1010.4
20260508235716 77 260 0.0 1.7 0.00 0.00 0.00 77 1010.3
20260508235212 77 276 0.0 1.7 0.00 0.00 0.00 77 1010.1
20260508234710 77 323 0.0 0.9 0.00 0.00 0.00 77 1010.0
20260508234206 77 3 1.7 1.7 0.00 0.00 0.00 77 1009.9
20260508233706 77 73 1.7 3.5 0.00 0.00 0.00 77 1009.8
20260508233203 77 332 1.7 2.6 0.00 0.00 0.00 78 1010.0
20260508232700 77 323 0.9 3.5 0.00 0.00 0.00 78 1009.9
20260508232156 77 302 1.7 2.6 0.00 0.00 0.00 78 1009.8
20260508231655 77 326 0.0 2.6 0.00 0.00 0.00 78 1009.9
20260508231151 77 308 0.0 1.7 0.00 0.00 0.00 79 1009.9
20260508230648 77 290 0.9 1.7 0.00 0.00 0.00 78 1009.7
20260508230144 77 358 2.6 3.5 0.00 0.00 0.00 78 1009.6
20260508225642 77 316 1.7 2.6 0.00 0.00 0.00 78 1009.7
20260508225138 77 319 0.9 1.7 0.00 0.00 0.00 78 1009.4
20260508224636 77 326 1.7 1.7 0.00 0.00 0.00 78 1009.5
20260508224134 77 312 1.7 1.7 0.00 0.00 0.00 77 1009.4
20260508223631 78 307 0.9 2.6 0.00 0.00 0.00 77 1009.4
20260508223128 78 327 0.0 0.0 0.00 0.00 0.00 77 1009.2
20260508222626 78 325 0.0 0.9 0.00 0.00 0.00 77 1009.4
20260508222122 78 346 0.9 1.7 0.00 0.00 0.00 77 1009.3
20260508221619 78 87 0.9 0.9 0.00 0.00 0.00 77 1009.2
20260508221114 78 322 0.9 1.7 0.00 0.00 0.00 78 1009.4
20260508220611 78 320 0.9 1.7 0.00 0.00 0.00 77 1009.4
20260508220108 78 306 0.9 1.7 0.00 0.00 0.00 77 1009.2
20260508215605 78 310 0.9 0.9 0.00 0.00 0.00 78 1009.3
20260508215101 78 299 0.0 0.9 0.00 0.00 0.00 78 1009.4
20260508214559 78 295 0.0 1.7 0.00 0.00 0.00 77 1009.4
20260508214055 78 307 0.0 0.9 0.00 0.00 0.00 78 1009.0
20260508213552 78 305 0.9 0.9 0.00 0.00 0.00 78 1009.0
20260508213048 78 305 0.0 0.9 0.00 0.00 0.00 78 1009.1
20260508212545 78 299 0.0 0.0 0.00 0.00 0.00 80 1009.5
20260508212041 78 300 0.0 1.7 0.00 0.00 0.00 80 1009.4
20260508211537 78 330 0.9 1.7 0.00 0.00 0.00 80 1009.3
20260508211033 78 286 0.9 1.7 0.00 0.00 0.00 80 1009.5
20260508210530 78 302 0.0 2.6 0.00 0.00 0.00 80 1009.5
20260508210028 78 308 0.9 2.6 0.00 0.00 0.00 80 1009.6
20260508205524 78 314 0.9 2.6 0.00 0.00 0.00 79 1009.7
20260508205020 78 302 0.9 0.9 0.00 0.00 0.00 80 1009.6
20260508204518 78 275 0.9 0.9 0.00 0.00 0.00 79 1009.7
20260508204013 78 266 0.0 0.0 0.00 0.00 0.00 79 1009.3
20260508203509 78 266 0.0 0.9 0.00 0.00 0.00 79 1009.4
20260508203005 78 266 0.0 0.0 0.00 0.00 0.00 77 1009.0
20260508202503 78 266 0.0 0.0 0.00 0.00 0.00 77 1009.0
20260508201959 78 266 0.0 0.0 0.00 0.00 0.00 77 1008.9
20260508201456 79 266 0.0 0.0 0.00 0.00 0.00 76 1009.1
20260508200952 79 266 0.0 0.0 0.00 0.00 0.00 76 1009.0
20260508200450 79 266 0.0 0.0 0.00 0.00 0.00 76 1008.9
20260508195944 78 266 0.0 0.0 0.00 0.00 0.00 76 1009.1
20260508195442 78 266 0.0 0.0 0.00 0.00 0.00 76 1009.0
20260508194938 78 266 0.0 0.0 0.00 0.00 0.00 76 1009.3
20260508194435 78 266 0.0 0.9 0.00 0.00 0.00 76 1008.9
20260508193932 78 264 0.0 0.0 0.00 0.00 0.00 76 1009.0
20260508193430 78 265 0.0 0.9 0.00 0.00 0.00 76 1009.1
20260508192925 78 269 0.0 0.0 0.00 0.00 0.00 76 1009.3
20260508192423 78 273 0.0 0.0 0.00 0.00 0.00 76 1009.2
20260508191919 78 325 0.9 0.9 0.00 0.00 0.00 76 1009.3
20260508191417 78 310 0.9 0.9 0.00 0.00 0.00 76 1009.5
20260508190913 78 320 0.0 0.9 0.00 0.00 0.00 76 1009.5
20260508190410 78 299 0.0 0.9 0.00 0.00 0.00 76 1009.4
20260508185906 78 298 0.0 0.9 0.00 0.00 0.00 76 1009.6
20260508185404 78 286 0.0 0.0 0.00 0.00 0.00 75 1009.9
20260508184901 78 286 0.0 0.9 0.00 0.00 0.00 75 1009.8
20260508184359 78 286 0.0 0.0 0.00 0.00 0.00 75 1009.8
20260508183855 78 286 0.0 0.9 0.00 0.00 0.00 75 1009.8
20260508183352 78 299 0.9 0.9 0.00 0.00 0.00 75 1009.6
20260508182848 78 314 0.0 0.0 0.00 0.00 0.00 76 1009.7
20260508182345 78 351 0.9 1.7 0.00 0.00 0.00 77 1009.6
20260508181840 78 273 0.0 0.9 0.00 0.00 0.00 77 1009.6
20260508181337 78 280 1.7 1.7 0.00 0.00 0.00 76 1009.8
20260508180834 78 267 0.0 1.7 0.00 0.00 0.00 76 1009.7
20260508180331 78 262 0.9 1.7 0.00 0.00 0.00 75 1009.7
20260508175827 78 257 0.0 0.9 0.00 0.00 0.00 76 1009.5
20260508175324 78 250 1.7 1.7 0.00 0.00 0.00 75 1009.7
20260508174822 78 218 0.9 1.7 0.00 0.00 0.00 76 1009.6
20260508174319 79 298 2.6 5.2 0.00 0.00 0.00 75 1009.8
20260508173815 80 285 1.7 1.7 0.00 0.00 0.00 74 1009.9
20260508173312 80 241 0.0 0.9 0.00 0.00 0.00 73 1009.9
20260508172808 81 240 0.0 1.7 0.00 0.00 0.00 73 1009.9
20260508172307 81 233 0.0 0.9 0.00 0.00 0.00 72 1010.2
20260508171802 81 192 0.9 2.6 0.00 0.00 0.00 72 1009.9
20260508171258 81 213 0.0 0.0 0.00 0.00 0.00 72 1010.0
20260508170755 81 206 0.0 0.9 0.00 0.00 0.00 72 1010.1
20260508170253 81 190 0.0 1.7 0.00 0.00 0.00 72 1010.0
20260508165749 82 212 0.0 0.9 0.00 0.00 0.00 72 1010.1
20260508165247 81 203 0.0 0.0 0.00 0.00 0.00 72 1010.3
20260508164743 81 199 0.9 0.9 0.00 0.00 0.00 72 1010.5
20260508164240 81 216 0.0 0.9 0.00 0.00 0.00 73 1010.4
20260508163738 81 238 0.0 0.9 0.00 0.00 0.00 73 1010.5
20260508163235 81 238 0.0 0.9 0.00 0.00 0.00 72 1010.5
20260508162731 82 212 0.0 0.0 0.00 0.00 0.00 72 1010.4
20260508162228 81 220 0.0 0.9 0.00 0.00 0.00 72 1010.2
20260508161725 81 234 0.0 0.0 0.00 0.00 0.00 72 1010.2
20260508161222 81 214 0.0 0.9 0.00 0.00 0.00 71 1010.2
20260508160720 81 214 0.9 0.9 0.00 0.00 0.00 72 1010.2
20260508160218 81 185 0.9 1.7 0.00 0.00 0.00 73 1010.1
20260508155714 81 187 0.0 2.6 0.00 0.00 0.00 73 1010.1
20260508155211 81 177 1.7 2.6 0.00 0.00 0.00 74 1010.2
20260508154708 81 230 0.0 0.9 0.00 0.00 0.00 74 1010.4
20260508154206 81 262 0.9 1.7 0.00 0.00 0.00 73 1010.4
20260508153702 81 221 0.9 0.9 0.00 0.00 0.00 73 1010.3
20260508153159 81 254 0.0 0.9 0.00 0.00 0.00 73 1010.1
20260508152655 81 254 0.0 0.0 0.00 0.00 0.00 73 1010.3
20260508152151 81 261 0.0 0.0 0.00 0.00 0.00 74 1010.5
20260508151648 81 261 0.0 1.7 0.00 0.00 0.00 74 1010.2
20260508151144 81 237 1.7 2.6 0.00 0.00 0.00 74 1010.6
20260508150642 81 236 0.9 1.7 0.00 0.00 0.00 74 1010.5
20260508150138 82 255 1.7 2.6 0.00 0.00 0.00 75 1010.5
20260508145634 82 283 0.9 3.5 0.00 0.00 0.00 75 1010.6
20260508145131 82 276 1.7 5.2 0.00 0.00 0.00 75 1010.5
20260508144628 83 254 1.7 7.8 0.00 0.00 0.00 74 1010.6
20260508144126 84 247 0.9 2.6 0.00 0.00 0.00 74 1010.4
20260508143623 84 252 0.0 0.9 0.00 0.00 0.00 74 1010.0
20260508143120 85 242 0.9 0.9 0.00 0.00 0.00 73 1009.9
20260508142616 85 275 0.0 0.0 0.00 0.00 0.00 73 1009.5
20260508142113 85 275 0.0 0.0 0.00 0.00 0.00 73 1009.5
20260508141610 85 275 0.0 0.0 0.00 0.00 0.00 73 1009.2
20260508141108 84 275 0.0 0.0 0.00 0.00 0.00 73 1009.2
20260508140604 84 275 0.0 0.0 0.00 0.00 0.00 74 1008.8
20260508135556 84 274 0.0 0.9 0.00 0.00 0.00 74 1009.1
20260508135053 85 274 0.0 0.9 0.00 0.00 0.00 75 1009.0
20260508134550 86 286 0.9 0.9 0.00 0.00 0.00 74 1008.7
20260508134047 86 294 0.0 0.0 0.00 0.00 0.00 72 1008.7
20260508133543 86 295 0.0 0.0 0.00 0.00 0.00 71 1008.1
20260508133041 86 295 0.0 0.0 0.00 0.00 0.00 70 1008.1
20260508132539 86 294 0.0 0.0 0.00 0.00 0.00 70 1007.8
20260508132035 86 294 0.0 0.0 0.00 0.00 0.00 70 1007.8
20260508131530 86 295 0.0 0.0 0.00 0.00 0.00 70 1007.8
20260508131027 86 294 0.0 0.0 0.00 0.00 0.00 70 1007.9
20260508130525 86 295 0.0 0.9 0.00 0.00 0.00 69 1007.8
20260508130021 87 294 0.0 0.9 0.00 0.00 0.00 69 1007.8
20260508125516 87 296 0.9 0.9 0.00 0.00 0.00 68 1008.1
20260508125015 88 243 0.0 0.0 0.00 0.00 0.00 68 1007.7
20260508124512 88 247 0.0 0.9 0.00 0.00 0.00 68 1007.7
20260508124009 88 258 0.9 0.9 0.00 0.00 0.00 67 1007.8
20260508123508 88 257 0.0 0.9 0.00 0.00 0.00 67 1007.7
20260508123004 89 276 0.0 0.9 0.00 0.00 0.00 67 1007.7
20260508122501 89 309 0.0 0.9 0.00 0.00 0.00 67 1007.9
20260508121958 89 325 0.0 0.9 0.00 0.00 0.00 67 1007.7
20260508121456 89 326 0.0 0.9 0.00 0.00 0.00 67 1007.7
20260508120954 89 309 0.9 0.9 0.00 0.00 0.00 66 1007.6
20260508120451 89 332 0.0 1.7 0.00 0.00 0.00 66 1007.5
20260508115949 89 305 0.9 1.7 0.00 0.00 0.00 66 1007.7
20260508115447 90 349 1.7 2.6 0.00 0.00 0.00 66 1007.8
20260508114943 90 332 0.0 2.6 0.00 0.00 0.00 66 1007.6
20260508114440 90 324 1.7 1.7 0.00 0.00 0.00 65 1007.6
20260508113936 90 306 0.9 2.6 0.00 0.00 0.00 65 1007.8
20260508113434 90 309 0.9 1.7 0.00 0.00 0.00 65 1007.9
20260508112931 91 313 0.0 0.9 0.00 0.00 0.00 64 1007.9
20260508112428 92 301 0.0 0.9 0.00 0.00 0.00 64 1008.0
20260508111924 92 311 0.0 0.9 0.00 0.00 0.00 63 1007.6
20260508111422 92 303 0.0 0.9 0.00 0.00 0.00 63 1007.7
20260508110919 91 298 0.9 1.7 0.00 0.00 0.00 64 1007.4
20260508110417 91 299 0.0 1.7 0.00 0.00 0.00 63 1007.3
20260508105916 92 286 0.9 0.9 0.00 0.00 0.00 63 1007.4
20260508105412 93 304 0.0 0.9 0.00 0.00 0.00 61 1007.2
20260508104910 94 306 0.9 1.7 0.00 0.00 0.00 60 1007.6
20260508104407 95 270 0.0 0.0 0.00 0.00 0.00 61 1007.6
20260508103904 96 270 0.9 1.7 0.00 0.00 0.00 59 1007.7
20260508103401 94 274 0.0 0.9 0.00 0.00 0.00 61 1007.6
20260508102858 94 260 0.9 1.7 0.00 0.00 0.00 62 1007.9
20260508102356 95 288 0.0 1.7 0.00 0.00 0.00 61 1007.8
20260508101853 95 278 0.0 0.9 0.00 0.00 0.00 59 1007.8
20260508101350 95 278 0.0 0.9 0.00 0.00 0.00 60 1007.7
20260508100848 94 269 0.0 0.9 0.00 0.00 0.00 60 1007.7
20260508100347 95 273 0.9 1.7 0.00 0.00 0.00 60 1007.6
20260508095842 95 262 0.0 1.7 0.00 0.00 0.00 60 1007.7
20260508095340 94 282 0.0 0.9 0.00 0.00 0.00 58 1007.5
20260508094836 95 296 0.9 1.7 0.00 0.00 0.00 59 1007.8
20260508094333 95 274 0.0 0.9 0.00 0.00 0.00 59 1007.9
20260508093830 94 264 0.9 0.9 0.00 0.00 0.00 61 1008.1
20260508093328 94 274 0.9 0.9 0.00 0.00 0.00 60 1008.1
20260508092825 94 276 0.0 0.9 0.00 0.00 0.00 61 1008.2
20260508092323 93 236 0.0 0.9 0.00 0.00 0.00 61 1008.3
20260508091821 95 212 0.0 2.6 0.00 0.00 0.00 60 1008.6
20260508091317 95 233 0.0 0.9 0.00 0.00 0.00 60 1008.3
20260508090815 94 255 0.9 1.7 0.00 0.00 0.00 60 1008.6
20260508090313 94 250 0.9 2.6 0.00 0.00 0.00 61 1008.6
20260508085808 94 42 0.9 2.6 0.00 0.00 0.00 61 1008.7
20260508085307 95 330 1.7 2.6 0.00 0.00 0.00 60 1008.7
20260508084801 93 253 0.0 0.9 0.00 0.00 0.00 62 1008.6
20260508084259 92 191 0.9 1.7 0.00 0.00 0.00 63 1009.0
20260508083757 93 44 0.0 1.7 0.00 0.00 0.00 62 1008.9
20260508083254 95 312 0.0 1.7 0.00 0.00 0.00 62 1009.0
20260508082753 96 209 0.0 1.7 0.00 0.00 0.00 60 1009.2
20260508082252 96 274 0.9 0.9 0.00 0.00 0.00 58 1009.4
20260508081748 94 290 0.0 0.9 0.00 0.00 0.00 59 1009.3
20260508081245 94 291 0.9 1.7 0.00 0.00 0.00 59 1009.4
20260508080742 94 273 0.0 1.7 0.00 0.00 0.00 59 1009.5
20260508080240 92 274 0.0 0.9 0.00 0.00 0.00 62 1009.6
20260508075736 93 266 0.0 1.7 0.00 0.00 0.00 62 1009.8
20260508075233 93 287 0.0 0.9 0.00 0.00 0.00 61 1009.8
20260508074731 92 267 0.0 1.7 0.00 0.00 0.00 63 1009.8
20260508074229 93 247 0.9 1.7 0.00 0.00 0.00 62 1009.7
20260508073725 94 287 1.7 1.7 0.00 0.00 0.00 60 1009.8
20260508073223 94 249 0.0 0.9 0.00 0.00 0.00 60 1010.0
20260508072719 92 278 0.9 1.7 0.00 0.00 0.00 61 1010.2
20260508072216 91 279 0.0 1.7 0.00 0.00 0.00 63 1010.1
20260508071713 92 268 0.9 1.7 0.00 0.00 0.00 62 1010.2
20260508071212 93 290 0.0 1.7 0.00 0.00 0.00 61 1010.2
20260508070709 95 245 1.7 1.7 0.00 0.00 0.00 60 1010.2
20260508070208 97 275 0.0 0.9 0.00 0.00 0.00 57 1010.2
20260508065704 95 295 0.0 0.9 0.00 0.00 0.00 57 1010.5
20260508065202 94 242 0.0 0.9 0.00 0.00 0.00 58 1010.2
20260508064659 93 280 0.9 1.7 0.00 0.00 0.00 56 1010.5
20260508064158 92 211 0.0 1.7 0.00 0.00 0.00 59 1010.4
20260508063655 92 217 0.0 0.0 0.00 0.00 0.00 56 1010.4
20260508063152 94 258 0.0 1.7 0.00 0.00 0.00 57 1010.4
20260508062650 92 243 0.0 1.7 0.00 0.00 0.00 57 1010.6
20260508062147 93 266 0.0 0.0 0.00 0.00 0.00 54 1010.6
20260508061643 91 284 0.9 1.7 0.00 0.00 0.00 57 1010.7
20260508061141 91 214 0.0 0.9 0.00 0.00 0.00 57 1010.9
20260508060638 93 258 1.7 2.6 0.00 0.00 0.00 54 1011.0
20260508060135 92 251 0.9 0.9 0.00 0.00 0.00 56 1011.1
20260508055630 92 254 0.9 0.9 0.00 0.00 0.00 56 1011.4
20260508055128 92 262 0.9 0.9 0.00 0.00 0.00 56 1011.3
20260508054624 91 247 0.9 0.9 0.00 0.00 0.00 55 1011.4
20260508054122 91 275 1.7 1.7 0.00 0.00 0.00 58 1011.2
20260508053618 91 254 0.0 0.9 0.00 0.00 0.00 59 1011.6
20260508053116 89 259 0.9 1.7 0.00 0.00 0.00 61 1011.3
20260508052613 90 254 0.0 0.9 0.00 0.00 0.00 60 1011.5
20260508052110 91 264 0.9 1.7 0.00 0.00 0.00 60 1011.7
20260508051606 91 276 0.0 0.0 0.00 0.00 0.00 57 1011.7
20260508051102 91 284 0.0 0.9 0.00 0.00 0.00 60 1011.6
20260508050558 90 245 0.0 0.0 0.00 0.00 0.00 59 1012.0
20260508050056 90 250 1.7 2.6 0.00 0.00 0.00 61 1011.8
20260508045551 89 252 0.0 1.7 0.00 0.00 0.00 62 1011.7
20260508045050 88 239 0.9 0.9 0.00 0.00 0.00 62 1011.7
20260508044547 89 282 0.0 1.7 0.00 0.00 0.00 63 1011.9
20260508044042 88 310 0.0 0.9 0.00 0.00 0.00 64 1011.7
20260508043539 88 254 2.6 3.5 0.00 0.00 0.00 62 1011.9
20260508043037 88 293 0.9 2.6 0.00 0.00 0.00 64 1012.0
20260508042533 87 302 0.9 1.7 0.00 0.00 0.00 64 1011.9
20260508042031 88 323 0.9 1.7 0.00 0.00 0.00 63 1012.0
20260508041527 88 269 0.0 0.9 0.00 0.00 0.00 62 1011.9
20260508041024 86 212 1.7 1.7 0.00 0.00 0.00 64 1012.1
20260508040521 86 291 0.9 1.7 0.00 0.00 0.00 66 1011.9
20260508040018 86 207 0.9 1.7 0.00 0.00 0.00 66 1012.0
20260508035515 85 184 1.7 2.6 0.00 0.00 0.00 66 1012.4
20260508035012 86 172 0.9 2.6 0.00 0.00 0.00 66 1012.2
20260508034509 86 307 0.0 0.9 0.00 0.00 0.00 68 1012.1
20260508034006 86 324 0.0 0.9 0.00 0.00 0.00 66 1012.2
20260508033504 85 204 0.0 0.9 0.00 0.00 0.00 64 1012.2
20260508033001 86 275 0.9 0.9 0.00 0.00 0.00 65 1012.2
20260508032458 84 250 0.0 0.9 0.00 0.00 0.00 68 1012.3
20260508031955 85 255 0.9 0.9 0.00 0.00 0.00 66 1012.2
20260508031453 85 275 0.9 0.9 0.00 0.00 0.00 66 1012.3
20260508030948 85 294 0.0 0.0 0.00 0.00 0.00 66 1012.3
20260508030445 84 294 0.0 0.0 0.00 0.00 0.00 68 1012.2
20260508025943 83 294 0.0 0.9 0.00 0.00 0.00 68 1012.3
20260508025439 82 294 0.0 0.9 0.00 0.00 0.00 70 1012.1
20260508024936 81 302 0.9 2.6 0.00 0.00 0.00 73 1012.3